Ponca City, OK

5:32 AM CST on November 20, 2019 (GMT -0600)
Ponca City Municipal

Weather History for KPNC - July, 2019

Change the Weather History Date:

Monday, July 15, 2019

  Actual Average Record
Temperature  
Mean Temperature 78 °F -  
Max Temperature 89 °F 95 °F 112 °F (1954)
Min Temperature 68 °F 70 °F 57 °F (2014)
Cooling Degree Days 13    
Growing Degree Days 28 (Base 50)    
Moisture  
Dew Point 67 °F    
Average Humidity 68    
Maximum Humidity 93    
Minimum Humidity 48    
Precipitation  
Precipitation 0.00 in - - ()
Sea Level Pressure  
Sea Level Pressure 29.89 in    
Wind  
Wind Speed 6 mph (ENE)    
Max Wind Speed 9 mph    
Max Gust Speed -    
Visibility 10 miles    
Events      
Averages and records for this station are not official NWS values.
T = Trace of Precipitation, MM = Missing Value Source: NWS Daily Summary

Daily Weather History Graph

Daily Weather History Graph

Search for Another Location

Airport or City:

Astronomy

Jul. 15, 2019 Rise Set
Actual Time 6:21 AM CDT 8:47 PM CDT
Civil Twilight 5:51 AM CDT 9:17 PM CDT
Nautical Twilight 5:14 AM CDT 9:53 PM CDT
Astronomical Twilight 4:33 AM CDT 10:34 PM CDT
Moon 8:05 PM CDT (7/15) 5:09 AM CDT (7/15)
Length of Visible Light 15h 25m
Length of Day
14h 26m
Waxing Gibbous, 99% of the Moon is Illuminated
Jul 15
Waxing Gibbous
Jul 16
Full
Jul 24
Last Quarter
Jul 31
New
Aug 7
First Quarter

Hourly Weather History & Observations

Time (CDT) Temp. Heat Index Dew Point Humidity Pressure Visibility Wind Dir Wind Speed Gust Speed Precip Events Conditions
12:53 AM 77.0 °F - 69.1 °F 76% 29.94 in 10.0 mi East 6.9 mph - N/A   Partly Cloudy
1:53 AM 75.9 °F - 68.0 °F 76% 29.93 in 10.0 mi ESE 6.9 mph - N/A   Clear
2:53 AM 73.0 °F - 68.0 °F 84% 29.92 in 10.0 mi East 3.5 mph - N/A   Clear
3:53 AM 73.0 °F - 69.1 °F 87% 29.92 in 10.0 mi East 6.9 mph - N/A   Clear
4:53 AM 71.1 °F - 66.9 °F 87% 29.91 in 10.0 mi East 4.6 mph - N/A   Clear
5:53 AM 68.0 °F - 66.0 °F 93% 29.93 in 10.0 mi Calm Calm - N/A   Clear
6:53 AM 69.1 °F - 64.9 °F 87% 29.94 in 10.0 mi ENE 4.6 mph - N/A   Clear
7:53 AM 73.0 °F - 66.9 °F 81% 29.94 in 10.0 mi NE 5.8 mph - N/A   Clear
8:53 AM 75.0 °F - 66.9 °F 76% 29.94 in 10.0 mi NNE 3.5 mph - N/A   Clear
9:53 AM 78.1 °F - 66.9 °F 68% 29.93 in 10.0 mi Variable 5.8 mph - N/A   Clear
10:53 AM 82.0 °F 84.5 °F 66.9 °F 60% 29.92 in 10.0 mi NNE 9.2 mph - N/A   Clear
11:53 AM 84.0 °F 86.5 °F 66.9 °F 56% 29.91 in 10.0 mi NNE 8.1 mph - N/A   Partly Cloudy
12:53 PM 84.9 °F 87.1 °F 66.0 °F 53% 29.89 in 10.0 mi NE 9.2 mph - N/A   Partly Cloudy
1:53 PM 86.0 °F 88.8 °F 66.9 °F 53% 29.88 in 10.0 mi NE 9.2 mph - N/A   Clear
2:53 PM 88.0 °F 90.3 °F 66.0 °F 48% 29.87 in 10.0 mi Variable 6.9 mph - N/A   Clear
4:53 PM 87.1 °F 90.6 °F 68.0 °F 53% 29.84 in 10.0 mi ENE 6.9 mph - N/A   Clear
5:53 PM 87.1 °F 89.9 °F 66.9 °F 51% 29.83 in 10.0 mi East 6.9 mph - N/A   Clear
6:53 PM 87.1 °F 89.9 °F 66.9 °F 51% 29.83 in 10.0 mi East 6.9 mph - N/A   Clear
7:53 PM 84.9 °F 87.6 °F 66.9 °F 55% 29.83 in 10.0 mi ESE 8.1 mph - N/A   Clear
8:53 PM 81.0 °F 83.3 °F 66.9 °F 62% 29.83 in 10.0 mi ESE 5.8 mph - N/A   Clear
9:53 PM 79.0 °F - 66.9 °F 66% 29.85 in 10.0 mi ESE 6.9 mph - N/A   Clear
10:53 PM 77.0 °F - 68.0 °F 74% 29.87 in 10.0 mi ESE 6.9 mph - N/A   Clear
11:53 PM 75.9 °F - 68.0 °F 76% 29.88 in 10.0 mi SE 4.6 mph - N/A   Clear